Track GONETS D1 1 now! 10-day predictions GONETS D1 1 is classified as:
1 23787U 96009A 23153.85659372 .00000002 00000-0 -47417-4 0 9990 2 23787 82.5754 289.8492 0011607 50.6319 67.0054 12.64063462259025